Kalamazoo, MI

8:26 PM EDT on April 25, 2018 (GMT -0400)
Kalamazoo-Battle Creek International

Weather History for KAZO - January, 2014

Change the Weather History Date:

Sunday, January 19, 2014

  Actual Average Record
Temperature  
Mean Temperature 23 °F 24 °F  
Max Temperature 35 °F 31 °F 55 °F (1973)
Min Temperature 10 °F 18 °F -11 °F (1997)
Degree Days  
Heating Degree Days 42 41  
Month to date heating degree days 704 771  
Since 1 July heating degree days 3211 3222  
Cooling Degree Days 0 0  
Month to date cooling degree days 0 0  
Year to date cooling degree days 0 0  
Moisture  
Dew Point 17 °F    
Average Humidity 80    
Maximum Humidity 92    
Minimum Humidity 68    
Precipitation  
Precipitation 0.00 in 0.06 in 1.11 in (1949)
Month to date precipitation 0.72 1.08  
Year to date precipitation 0.72 1.08  
Sea Level Pressure  
Sea Level Pressure 29.69 in    
Wind  
Wind Speed 13 mph (SW)    
Max Wind Speed 28 mph    
Max Gust Speed 36 mph    
Visibility 9 miles    
Events      
T = Trace of Precipitation, MM = Missing Value Source: NWS Daily Summary

Daily Weather History Graph

Daily Weather History Graph

Search for Another Location

Airport or City:

Astronomy

Jan. 19, 2014 Rise Set
Actual Time 8:06 AM EST 5:40 PM EST
Civil Twilight 7:35 AM EST 6:10 PM EST
Nautical Twilight 7:01 AM EST 6:45 PM EST
Astronomical Twilight 6:27 AM EST 7:18 PM EST
Moon 9:22 PM EST (1/19) 9:31 AM EST (1/19)
Length of Visible Light 10h 35m
Length of Day
9h 33m
Waning Gibbous, 89% of the Moon is Illuminated
Jan 19
Waning Gibbous
Jan 24
Last Quarter
Jan 30
New
Feb 6
First Quarter
Feb 14
Full

Hourly Weather History & Observations

Time (EST) Temp. Windchill Dew Point Humidity Pressure Visibility Wind Dir Wind Speed Gust Speed Precip Events Conditions
12:53 AM 16.0 °F - 12.9 °F 88% 29.84 in 7.0 mi Calm Calm - N/A   Overcast
1:27 AM 12.2 °F 6.1 °F 10.4 °F 92% 29.77 in 6.0 mi SSW 3.5 mph - N/A   Scattered Clouds
1:53 AM 10.9 °F 4.7 °F 8.1 °F 88% 29.83 in 5.0 mi WSW 3.5 mph - N/A   Clear
2:13 AM 10.4 °F 2.2 °F 6.8 °F 85% 29.77 in 6.0 mi WSW 4.6 mph - N/A   Mostly Cloudy
2:53 AM 15.1 °F 6.4 °F 12.0 °F 88% 29.82 in 8.0 mi SW 5.8 mph - N/A   Overcast
3:53 AM 17.1 °F 7.6 °F 12.9 °F 84% 29.81 in 9.0 mi SW 6.9 mph - N/A   Overcast
4:53 AM 19.0 °F 11.1 °F 14.0 °F 81% 29.80 in 10.0 mi SW 5.8 mph - N/A   Overcast
5:53 AM 19.9 °F 9.3 °F 15.1 °F 81% 29.79 in 10.0 mi SW 9.2 mph - N/A   Overcast
6:53 AM 21.0 °F 9.3 °F 17.1 °F 85% 29.77 in 10.0 mi SW 11.5 mph - N/A   Overcast
7:53 AM 21.0 °F 7.6 °F 16.0 °F 81% 29.75 in 10.0 mi SW 15.0 mph - N/A   Overcast
8:23 AM 19.4 °F 5.0 °F 14.0 °F 80% 29.71 in 10.0 mi SW 16.1 mph - N/A   Mostly Cloudy
8:53 AM 19.0 °F 4.5 °F 14.0 °F 81% 29.75 in 10.0 mi SW 16.1 mph - N/A   Clear
9:53 AM 19.0 °F 3.2 °F 12.9 °F 77% 29.73 in 10.0 mi SSW 19.6 mph 25.3 mph N/A   Scattered Clouds
10:53 AM 19.9 °F 3.5 °F 12.0 °F 71% 29.71 in 9.0 mi SW 21.9 mph 29.9 mph N/A   Partly Cloudy
11:53 AM 21.9 °F 6.5 °F 14.0 °F 72% 29.70 in 10.0 mi SW 20.7 mph 27.6 mph N/A   Scattered Clouds
12:53 PM 23.0 °F 6.9 °F 16.0 °F 74% 29.68 in 7.0 mi WSW 24.2 mph 33.4 mph N/A   Overcast
1:53 PM 24.1 °F 9.4 °F 17.1 °F 75% 29.65 in 10.0 mi SW 20.7 mph 26.5 mph N/A   Overcast
2:44 PM 26.6 °F 13.4 °F 17.6 °F 69% 29.59 in 10.0 mi SW 18.4 mph 25.3 mph N/A   Partly Cloudy
2:53 PM 27.0 °F 13.9 °F 18.0 °F 69% 29.63 in 10.0 mi SW 18.4 mph 24.2 mph N/A   Partly Cloudy
3:53 PM 28.0 °F 16.5 °F 19.0 °F 69% 29.62 in 10.0 mi SW 15.0 mph 28.8 mph N/A   Clear
4:53 PM 28.0 °F 15.7 °F 19.0 °F 69% 29.62 in 9.0 mi SW 17.3 mph 28.8 mph N/A   Clear
5:53 PM 27.0 °F 14.7 °F 19.9 °F 75% 29.60 in 10.0 mi SW 16.1 mph - N/A   Clear
6:53 PM 27.0 °F 15.2 °F 21.0 °F 78% 29.60 in 10.0 mi SW 15.0 mph - N/A   Clear
7:53 PM 28.0 °F 18.1 °F 21.9 °F 78% 29.60 in 10.0 mi SW 11.5 mph - N/A   Clear
8:53 PM 28.0 °F 18.1 °F 23.0 °F 81% 29.59 in 10.0 mi SSW 11.5 mph - N/A   Clear
9:53 PM 30.0 °F 21.7 °F 25.0 °F 82% 29.56 in 10.0 mi SW 9.2 mph - N/A   Clear
10:53 PM 33.1 °F 24.4 °F 26.1 °F 75% 29.53 in 10.0 mi SW 11.5 mph - N/A   Overcast
11:53 PM 35.1 °F 27.4 °F 27.0 °F 72% 29.52 in 10.0 mi WSW 10.4 mph - N/A   Overcast